Weather History for Huntsville, AL

Change the Weather History Date:

Monday, January 30, 2012

  Actual Average Record
Temperature  
Mean Temperature 46 °F 42 °F  
Max Temperature 62 °F 52 °F 77 °F (2002)
Min Temperature 30 °F 33 °F -11 °F (1966)
Degree Days  
Heating Degree Days 19 23  
Month to date heating degree days 538 711  
Since 1 July heating degree days 1644 1892  
Cooling Degree Days 0 0  
Month to date cooling degree days 0 0  
Year to date cooling degree days 0 0  
Moisture  
Dew Point 26 °F    
Average Humidity 54    
Maximum Humidity 85    
Minimum Humidity 23    
Precipitation  
Precipitation 0.00 in 0.15 in 1.33 in (2013)
Month to date precipitation 7.79 4.73  
Year to date precipitation 7.79 4.73  
Snow  
Snow 0.00 in - - ()
Month to date snowfall T  
Since 1 July snowfall T  
Snow Depth 0.00 in    
Sea Level Pressure  
Sea Level Pressure 30.35 in    
Wind  
Wind Speed 6 mph (SSE)    
Max Wind Speed 14 mph    
Max Gust Speed 18 mph    
Visibility 10 miles    
Events      
T = Trace of Precipitation, MM = Missing Value Source: NWS Daily Summary

Daily Weather History Graph

Daily Weather History Graph

Search for Another Location

Airport:

Trip Planner

Search our weather history database for the weather conditions in past years. The results will help you decide how hot, cold, wet, or windy it might be!

Date:

Astronomy

Jan. 30, 2012 Rise Set
Actual Time 6:47 AM CST 5:14 PM CST
Civil Twilight 6:20 AM CST 5:40 PM CST
Nautical Twilight 5:50 AM CST 6:10 PM CST
Astronomical Twilight 5:20 AM CST 6:40 PM CST
Moon 10:30 AM CST (1/30) No Moon Set
Length of Visible Light 11h 20m
Length of Day
10h 27m
Waxing Crescent, 46% of the Moon is Illuminated
Jan 30
Waxing Crescent
Jan 30
First Quarter
Feb 7
Full
Feb 14
Last Quarter
Feb 21
New

Hourly Weather History & Observations

Time (CST) Temp. Windchill Dew Point Humidity Pressure Visibility Wind Dir Wind Speed Gust Speed Precip Events Conditions
12:53 AM 33.1 °F 27.7 °F 26.1 °F 75% 30.36 in 10.0 mi East 5.8 mph - N/A   Clear
1:53 AM 34.0 °F 31.0 °F 25.0 °F 70% 30.37 in 10.0 mi East 3.5 mph - N/A   Clear
2:53 AM 33.1 °F 30.0 °F 24.1 °F 70% 30.37 in 10.0 mi East 3.5 mph - N/A   Clear
3:53 AM 33.1 °F 28.7 °F 25.0 °F 72% 30.36 in 10.0 mi ESE 4.6 mph - N/A   Clear
4:53 AM 32.0 °F 27.5 °F 26.1 °F 79% 30.37 in 10.0 mi East 4.6 mph - N/A   Clear
5:53 AM 30.9 °F 27.5 °F 25.0 °F 79% 30.38 in 10.0 mi ESE 3.5 mph - N/A   Partly Cloudy
6:53 AM 30.9 °F 25.2 °F 26.1 °F 82% 30.40 in 10.0 mi East 5.8 mph - N/A   Partly Cloudy
7:53 AM 35.1 °F 31.0 °F 30.0 °F 82% 30.41 in 10.0 mi East 4.6 mph - N/A   Partly Cloudy
8:53 AM 44.1 °F 40.8 °F 28.9 °F 55% 30.41 in 10.0 mi SE 5.8 mph - N/A   Partly Cloudy
9:53 AM 50.0 °F - 25.0 °F 38% 30.42 in 10.0 mi South 4.6 mph - N/A   Partly Cloudy
10:53 AM 55.4 °F - 21.2 °F 26% 30.41 in 10.0 mi SW 9.2 mph - N/A   Partly Cloudy
11:53 AM 59.0 °F - 23.0 °F 25% 30.39 in 10.0 mi South 5.8 mph - N/A   Partly Cloudy
12:53 PM 60.1 °F - 24.1 °F 25% 30.36 in 10.0 mi South 10.4 mph - N/A   Partly Cloudy
1:53 PM 62.1 °F - 26.1 °F 25% 30.32 in 10.0 mi South 10.4 mph - N/A   Partly Cloudy
2:53 PM 62.1 °F - 25.0 °F 24% 30.31 in 10.0 mi SSW 11.5 mph - N/A   Partly Cloudy
3:53 PM 61.0 °F - 27.0 °F 27% 30.30 in 10.0 mi South 11.5 mph - N/A   Clear
4:53 PM 57.0 °F - 28.0 °F 33% 30.30 in 10.0 mi South 8.1 mph - N/A   Partly Cloudy
5:53 PM 53.1 °F - 30.0 °F 41% 30.31 in 10.0 mi South 5.8 mph - N/A   Partly Cloudy
6:53 PM 48.9 °F - 30.0 °F 48% 30.32 in 10.0 mi South 8.1 mph - N/A   Clear
7:53 PM 46.9 °F - 28.9 °F 50% 30.33 in 10.0 mi South 5.8 mph - N/A   Clear
8:53 PM 45.0 °F 42.6 °F 28.9 °F 53% 30.33 in 10.0 mi SSE 4.6 mph - N/A   Clear
9:53 PM 44.1 °F 40.8 °F 28.0 °F 53% 30.32 in 10.0 mi SE 5.8 mph - N/A   Clear
10:53 PM 43.0 °F 40.3 °F 27.0 °F 53% 30.32 in 10.0 mi ESE 4.6 mph - N/A   Clear
11:53 PM 44.1 °F 41.5 °F 26.1 °F 49% 30.32 in 10.0 mi SE 4.6 mph - N/A   Clear